EW6167 Weather Reports


time (UTC)temp
C
wind
direction
speed
KPH
gust
KPH
rain 1hr
cm
rain 24hr
cm
rain mn
cm
humidity
%
barometer
mb
20260509041507 13 331 12.9 0.0 0.00 0.00 0.00 32 1008.6
20260509041017 12 11 12.9 0.0 0.00 0.00 0.00 33 1008.5
20260509040516 13 38 11.3 0.0 0.00 0.00 0.00 33 1008.4
20260509040023 12 307 4.8 0.0 0.00 0.00 0.00 33 1008.2
20260509035559 12 76 1.6 0.0 0.00 0.00 0.00 34 1008.1
20260509035004 12 76 1.6 0.0 0.00 0.00 0.00 35 1008.1
20260509034511 12 78 0.0 0.0 0.00 0.00 0.00 35 1008.1
20260509034015 12 78 0.0 0.0 0.00 0.00 0.00 36 1008.0
20260509033550 12 78 1.6 0.0 0.00 0.00 0.00 36 1008.0
20260509033027 12 78 3.2 0.0 0.00 0.00 0.00 36 1007.8
20260509032559 12 78 3.2 0.0 0.00 0.00 0.00 37 1007.8
20260509032001 12 75 6.4 0.0 0.00 0.00 0.00 36 1007.8
20260509031541 12 72 3.2 0.0 0.00 0.00 0.00 35 1007.6
20260509031014 13 92 1.6 0.0 0.00 0.00 0.00 35 1007.6
20260509030524 13 92 6.4 0.0 0.00 0.00 0.00 35 1007.4
20260509030028 13 65 9.7 0.0 0.00 0.00 0.00 34 1007.4
20260509025605 13 74 9.7 0.0 0.00 0.00 0.00 34 1007.2
20260509025040 14 74 4.8 0.0 0.00 0.00 0.00 32 1007.2
20260509024511 14 311 3.2 0.0 0.00 0.00 0.00 31 1007.3
20260509024042 15 305 1.6 0.0 0.00 0.00 0.00 31 1007.4
20260509023555 15 305 1.6 0.0 0.00 0.00 0.00 30 1007.5
20260509023034 15 305 0.0 0.0 0.00 0.00 0.00 29 1007.5
20260509022507 15 305 0.0 0.0 0.00 0.00 0.00 29 1007.2
20260509022017 15 305 0.0 0.0 0.00 0.00 0.00 29 1007.2
20260509021524 15 305 1.6 0.0 0.00 0.00 0.00 28 1007.3
20260509021005 15 305 4.8 0.0 0.00 0.00 0.00 28 1007.2
20260509020549 16 305 6.4 0.0 0.00 0.00 0.00 27 1007.2
20260509020047 16 303 8.0 0.0 0.00 0.00 0.00 27 1007.2
20260509015513 16 305 11.3 0.0 0.00 0.00 0.00 26 1007.0
20260509015057 16 307 14.5 0.0 0.00 0.00 0.00 25 1007.0
20260509014545 16 313 16.1 0.0 0.00 0.00 0.00 23 1007.0
20260509014014 16 296 12.9 0.0 0.00 0.00 0.00 24 1007.0
20260509013557 16 290 11.3 0.0 0.00 0.00 0.00 25 1007.0
20260509013002 17 296 9.7 0.0 0.00 0.00 0.00 26 1007.0
20260509012511 17 298 11.3 0.0 0.00 0.00 0.00 26 1006.9
20260509012022 17 296 11.3 0.0 0.00 0.00 0.00 25 1007.0
20260509011503 17 290 14.5 0.0 0.00 0.00 0.00 25 1007.1
20260509011046 17 281 16.1 0.0 0.00 0.00 0.00 24 1007.0
20260509010605 17 291 16.1 0.0 0.00 0.00 0.00 23 1007.1
20260509010011 17 277 16.1 0.0 0.00 0.00 0.00 24 1007.2
20260509005600 17 288 14.5 0.0 0.00 0.00 0.00 23 1007.1
20260509005040 17 286 17.7 0.0 0.00 0.00 0.00 23 1007.2
20260509004530 17 263 20.9 0.0 0.00 0.00 0.00 21 1007.3
20260509004013 17 275 19.3 0.0 0.00 0.00 0.00 20 1007.3
20260509003557 17 273 19.3 0.0 0.00 0.00 0.00 20 1007.4
20260509003010 17 292 20.9 0.0 0.00 0.00 0.00 21 1007.3
20260509002553 18 295 19.3 0.0 0.00 0.00 0.00 20 1007.4
20260509002042 18 299 17.7 0.0 0.00 0.00 0.00 20 1007.3
20260509001523 18 275 19.3 0.0 0.00 0.00 0.00 18 1007.3
20260509001005 18 275 20.9 0.0 0.00 0.00 0.00 20 1007.3
20260509000552 18 304 22.5 0.0 0.00 0.00 0.00 20 1007.2
20260509000001 18 265 24.1 0.0 0.00 0.00 0.00 21 1007.2
20260508235517 18 273 25.7 0.0 0.00 0.00 0.00 21 1007.2
20260508235006 18 266 25.7 0.0 0.00 0.00 0.00 22 1007.3
20260508234557 18 293 22.5 0.0 0.00 0.00 0.00 22 1007.2
20260508234042 18 279 24.1 0.0 0.00 0.00 0.00 23 1007.2
20260508233528 18 289 30.6 0.0 0.00 0.00 0.00 18 1007.1
20260508233011 18 276 30.6 0.0 0.00 0.00 0.00 23 1007.1
20260508232559 18 284 25.7 0.0 0.00 0.00 0.00 22 1007.0
20260508232015 18 298 20.9 0.0 0.00 0.00 0.00 22 1007.0
20260508231523 18 315 20.9 0.0 0.00 0.00 0.00 23 1007.0
20260508231016 18 286 17.7 0.0 0.00 0.00 0.00 22 1007.1
20260508230501 18 263 19.3 0.0 0.00 0.00 0.00 23 1007.1
20260508230100 18 300 19.3 0.0 0.00 0.00 0.00 24 1007.0
20260508225508 18 277 20.9 0.0 0.00 0.00 0.00 23 1007.0
20260508225024 18 292 19.3 0.0 0.00 0.00 0.00 23 1007.0
20260508224535 18 360 20.9 0.0 0.00 0.00 0.00 22 1007.0
20260508224025 18 288 24.1 0.0 0.00 0.00 0.00 21 1007.0
20260508223516 18 284 22.5 0.0 0.00 0.00 0.00 21 1007.0
20260508223004 18 292 20.9 0.0 0.00 0.00 0.00 21 1007.0
20260508222604 18 281 20.9 0.0 0.00 0.00 0.00 22 1006.9
20260508222057 18 309 20.9 0.0 0.00 0.00 0.00 20 1007.0
20260508221552 18 299 24.1 0.0 0.00 0.00 0.00 18 1007.0
20260508221001 19 290 25.7 0.0 0.00 0.00 0.00 19 1007.0
20260508220556 19 294 25.7 0.0 0.00 0.00 0.00 19 1006.9
20260508220005 19 284 14.5 0.0 0.00 0.00 0.00 18 1006.9
20260508215559 19 300 12.9 0.0 0.00 0.00 0.00 19 1007.2
20260508215010 20 296 17.7 0.0 0.00 0.00 0.00 17 1007.1
20260508214504 20 293 16.1 0.0 0.00 0.00 0.00 19 1007.2
20260508214057 20 261 19.3 0.0 0.00 0.00 0.00 19 1007.2
20260508213553 20 302 24.1 0.0 0.00 0.00 0.00 20 1007.2
20260508213004 20 303 16.1 0.0 0.00 0.00 0.00 19 1007.4
20260508212601 19 311 14.5 0.0 0.00 0.00 0.00 19 1007.5
20260508212054 19 294 17.7 0.0 0.00 0.00 0.00 18 1007.7
20260508211505 20 311 19.3 0.0 0.00 0.00 0.00 20 1007.7
20260508211058 19 360 20.9 0.0 0.00 0.00 0.00 19 1007.9
20260508210556 19 271 24.1 0.0 0.00 0.00 0.00 19 1008.0
20260508210007 19 294 25.7 0.0 0.00 0.00 0.00 18 1008.0
20260508205501 18 289 24.1 0.0 0.00 0.00 0.00 18 1008.0
20260508205104 19 286 24.1 0.0 0.00 0.00 0.00 19 1007.9
20260508204558 19 292 27.4 0.0 0.00 0.00 0.00 18 1008.1
20260508204055 19 294 25.7 0.0 0.00 0.00 0.00 19 1008.0
20260508203557 19 287 25.7 0.0 0.00 0.00 0.00 19 1008.0
20260508203106 19 323 27.4 0.0 0.00 0.00 0.00 19 1007.9
20260508202554 19 293 24.1 0.0 0.00 0.00 0.00 20 1008.0
20260508202054 19 292 24.1 0.0 0.00 0.00 0.00 21 1008.0
20260508201511 19 277 27.4 0.0 0.00 0.00 0.00 21 1008.1
20260508201010 19 277 20.9 0.0 0.00 0.00 0.00 23 1008.0
20260508200507 19 306 17.7 0.0 0.00 0.00 0.00 24 1008.1
20260508200009 19 277 20.9 0.0 0.00 0.00 0.00 23 1008.2
20260508195506 19 262 22.5 0.0 0.00 0.00 0.00 25 1008.1
20260508195009 19 280 20.9 0.0 0.00 0.00 0.00 23 1008.0
20260508194506 19 322 14.5 0.0 0.00 0.00 0.00 24 1008.2
20260508194003 18 292 8.0 0.0 0.00 0.00 0.00 23 1008.3
20260508193604 18 82 3.2 0.0 0.00 0.00 0.00 30 1008.5
20260508193105 18 39 3.2 0.0 0.00 0.00 0.00 27 1008.6
20260508192605 18 38 4.8 0.0 0.00 0.00 0.00 29 1008.7
20260508192102 17 47 4.8 0.0 0.00 0.00 0.00 33 1008.6
20260508191602 17 52 4.8 0.0 0.00 0.00 0.00 31 1008.6
20260508191048 17 271 8.0 0.0 0.00 0.00 0.00 31 1008.8
20260508190531 17 211 6.4 0.0 0.00 0.00 0.00 31 1008.7
20260508190036 17 103 6.4 0.0 0.00 0.00 0.00 35 1008.8
20260508185541 17 86 6.4 0.0 0.00 0.00 0.00 33 1008.9
20260508185036 17 112 8.0 0.0 0.00 0.00 0.00 35 1009.0
20260508184543 17 163 9.7 0.0 0.00 0.00 0.00 32 1009.0
20260508184033 17 130 11.3 0.0 0.00 0.00 0.00 35 1009.0
20260508183514 17 147 11.3 0.0 0.00 0.00 0.00 35 1009.0
20260508183014 17 129 8.0 0.0 0.00 0.00 0.00 35 1009.1
20260508182514 17 136 6.4 0.0 0.00 0.00 0.00 37 1009.3
20260508182107 17 161 4.8 0.0 0.00 0.00 0.00 35 1009.4
20260508181557 17 109 6.4 0.0 0.00 0.00 0.00 34 1009.4
20260508181033 17 175 8.0 0.0 0.00 0.00 0.00 37 1009.5
20260508180521 16 138 8.0 0.0 0.00 0.00 0.00 36 1009.5
20260508180005 16 115 8.0 0.0 0.00 0.00 0.00 36 1009.5
20260508175556 16 124 6.4 0.0 0.00 0.00 0.00 38 1009.6
20260508175041 16 248 3.2 0.0 0.00 0.00 0.00 37 1009.7
20260508174529 16 184 4.8 0.0 0.00 0.00 0.00 38 1009.8
20260508174009 16 92 6.4 0.0 0.00 0.00 0.00 37 1009.9
20260508173504 16 108 8.0 0.0 0.00 0.00 0.00 38 1009.9
20260508173059 16 82 6.4 0.0 0.00 0.00 0.00 39 1010.0
20260508172502 15 16 8.0 0.0 0.00 0.00 0.00 39 1009.9
20260508172006 15 55 8.0 0.0 0.00 0.00 0.00 39 1010.1
20260508171600 15 176 8.0 0.0 0.00 0.00 0.00 40 1010.3
20260508171054 15 123 8.0 0.0 0.00 0.00 0.00 41 1010.2
20260508170551 15 146 8.0 0.0 0.00 0.00 0.00 41 1010.2
20260508170042 15 187 8.0 0.0 0.00 0.00 0.00 41 1010.3
20260508165534 15 219 8.0 0.0 0.00 0.00 0.00 40 1010.3
20260508165023 15 215 8.0 0.0 0.00 0.00 0.00 40 1010.4
20260508164513 15 144 6.4 0.0 0.00 0.00 0.00 44 1010.5
20260508164012 15 238 8.0 0.0 0.00 0.00 0.00 41 1010.5
20260508163504 15 90 8.0 0.0 0.00 0.00 0.00 45 1010.5
20260508163105 15 132 8.0 0.0 0.00 0.00 0.00 45 1010.5
20260508162504 14 221 6.4 0.0 0.00 0.00 0.00 45 1010.5
20260508162002 14 190 6.4 0.0 0.00 0.00 0.00 47 1010.7
20260508161603 14 144 8.0 0.0 0.00 0.00 0.00 45 1010.7
20260508161106 13 202 8.0 0.0 0.00 0.00 0.00 47 1010.8
20260508160515 13 179 9.7 0.0 0.00 0.00 0.00 50 1010.8
20260508160029 13 213 9.7 0.0 0.00 0.00 0.00 50 1010.8
20260508155533 13 195 11.3 0.0 0.00 0.00 0.00 50 1010.7
20260508155032 12 219 12.9 0.0 0.00 0.00 0.00 53 1010.8
20260508154538 12 218 12.9 0.0 0.00 0.00 0.00 53 1010.9
20260508154038 12 213 12.9 0.0 0.00 0.00 0.00 54 1010.9
20260508153538 12 198 12.9 0.0 0.00 0.00 0.00 54 1011.0
20260508153057 12 191 11.3 0.0 0.00 0.00 0.00 57 1011.1
20260508152514 11 210 12.9 0.0 0.00 0.00 0.00 58 1011.2
20260508152025 11 212 12.9 0.0 0.00 0.00 0.00 58 1011.2
20260508151531 11 207 12.9 0.0 0.00 0.00 0.00 59 1011.1
20260508151036 10 202 14.5 0.0 0.00 0.00 0.00 61 1011.1
20260508150540 10 211 12.9 0.0 0.00 0.00 0.00 61 1011.2
20260508150043 10 202 11.3 0.0 0.00 0.00 0.00 63 1011.2
20260508145555 10 196 11.3 0.0 0.00 0.00 0.00 63 1011.3
20260508145102 9 196 9.7 0.0 0.00 0.00 0.00 63 1011.2
20260508144516 9 181 9.7 0.0 0.00 0.00 0.00 66 1011.3
20260508144027 8 203 11.3 0.0 0.00 0.00 0.00 67 1011.2
20260508143045 8 200 9.7 0.0 0.00 0.00 0.00 66 1011.4
20260508142604 8 160 8.0 0.0 0.00 0.00 0.00 69 1011.2
20260508142016 7 125 8.0 0.0 0.00 0.00 0.00 74 1011.4
20260508141604 7 132 9.7 0.0 0.00 0.00 0.00 75 1011.5
20260508141052 7 166 9.7 0.0 0.00 0.00 0.00 74 1011.4
20260508140516 6 167 8.0 0.0 0.00 0.00 0.00 74 1011.4
20260508140028 6 192 9.7 0.0 0.00 0.00 0.00 77 1011.3
20260508135549 6 200 11.3 0.0 0.00 0.00 0.00 76 1011.3
20260508135007 6 207 11.3 0.0 0.00 0.00 0.00 76 1011.3
20260508134542 5 193 9.7 0.0 0.00 0.00 0.00 78 1011.2
20260508134046 5 157 9.7 0.0 0.00 0.00 0.00 79 1011.3
20260508133604 5 185 9.7 0.0 0.00 0.00 0.00 80 1011.2
20260508133017 5 178 8.0 0.0 0.00 0.00 0.00 81 1011.1
20260508132536 4 194 8.0 0.0 0.00 0.00 0.00 83 1011.1
20260508132055 3 192 8.0 0.0 0.00 0.00 0.00 85 1011.1
20260508131511 3 201 9.7 0.0 0.00 0.00 0.00 85 1011.0
20260508131027 2 204 9.7 0.0 0.00 0.00 0.00 85 1011.0
20260508130542 2 204 6.4 0.0 0.00 0.00 0.00 85 1011.0
20260508130005 2 202 6.4 0.0 0.00 0.00 0.00 85 1010.9
20260508125523 2 177 6.4 0.0 0.00 0.00 0.00 85 1011.0
20260508125043 2 177 8.0 0.0 0.00 0.00 0.00 85 1010.9
20260508124505 2 177 8.0 0.0 0.00 0.00 0.00 85 1010.9
20260508124021 1 177 8.0 0.0 0.00 0.00 0.00 86 1011.0
20260508123538 1 172 9.7 0.0 0.00 0.00 0.00 86 1010.8
20260508123056 1 168 9.7 0.0 0.00 0.00 0.00 86 1010.8
20260508122509 1 165 11.3 0.0 0.00 0.00 0.00 85 1010.7
20260508122033 1 168 12.9 0.0 0.00 0.00 0.00 84 1010.8
20260508121549 2 184 12.9 0.0 0.00 0.00 0.00 84 1010.8
20260508121003 2 140 14.5 0.0 0.00 0.00 0.00 83 1010.8
20260508120522 2 190 14.5 0.0 0.00 0.00 0.00 84 1010.6
20260508120036 2 205 14.5 0.0 0.00 0.00 0.00 84 1010.5
20260508115553 2 196 11.3 0.0 0.00 0.00 0.00 85 1010.6
20260508115004 2 198 8.0 0.0 0.00 0.00 0.00 85 1010.7
20260508114522 2 172 9.7 0.0 0.00 0.00 0.00 84 1010.7
20260508114044 2 168 11.3 0.0 0.00 0.00 0.00 85 1010.7
20260508113601 2 180 11.3 0.0 0.00 0.00 0.00 85 1010.6
20260508113013 2 159 11.3 0.0 0.00 0.00 0.00 85 1010.6
20260508112527 2 142 11.3 0.0 0.00 0.00 0.00 86 1010.5
20260508112044 2 175 9.7 0.0 0.00 0.00 0.00 86 1010.5
20260508111604 1 199 6.4 0.0 0.00 0.00 0.00 86 1010.4
20260508111022 2 180 8.0 0.0 0.00 0.00 0.00 85 1010.4
20260508110540 2 183 9.7 0.0 0.00 0.00 0.00 86 1010.5
20260508105512 1 203 8.0 0.0 0.00 0.00 0.00 86 1010.4
20260508105027 1 197 8.0 0.0 0.00 0.00 0.00 86 1010.3
20260508104552 1 200 6.4 0.0 0.00 0.00 0.00 85 1010.4
20260508104004 1 194 8.0 0.0 0.00 0.00 0.00 85 1010.3
20260508103520 2 182 9.7 0.0 0.00 0.00 0.00 85 1010.4
20260508103038 2 190 11.3 0.0 0.00 0.00 0.00 85 1010.3
20260508102551 2 192 11.3 0.0 0.00 0.00 0.00 84 1010.3
20260508102005 2 190 12.9 0.0 0.00 0.00 0.00 84 1010.2
20260508101521 2 188 12.9 0.0 0.00 0.00 0.00 85 1010.2
20260508101034 2 176 12.9 0.0 0.00 0.00 0.00 85 1010.1
20260508100549 2 169 12.9 0.0 0.00 0.00 0.00 85 1010.1
20260508100105 2 177 12.9 0.0 0.00 0.00 0.00 86 1010.1
20260508095516 2 196 9.7 0.0 0.00 0.00 0.00 87 1010.0
20260508095032 1 170 8.0 0.0 0.00 0.00 0.00 86 1010.0
20260508094549 1 179 9.7 0.0 0.00 0.00 0.00 86 1010.0
20260508094003 2 170 9.7 0.0 0.00 0.00 0.00 85 1010.0
20260508093518 2 172 9.7 0.0 0.00 0.00 0.00 86 1010.0
20260508093044 2 189 9.7 0.0 0.00 0.00 0.00 86 1010.0
20260508092557 2 192 9.7 0.0 0.00 0.00 0.00 86 1010.0
20260508092011 2 191 9.7 0.0 0.00 0.00 0.00 87 1010.0
20260508091537 2 173 9.7 0.0 0.00 0.00 0.00 87 1010.0
20260508091059 2 184 9.7 0.0 0.00 0.00 0.00 87 1010.1
20260508090508 2 191 9.7 0.0 0.00 0.00 0.00 87 1009.8
20260508090037 2 184 8.0 0.0 0.00 0.00 0.00 87 1010.0
20260508085542 2 188 8.0 0.0 0.00 0.00 0.00 86 1010.0
20260508085104 2 182 8.0 0.0 0.00 0.00 0.00 86 1010.0
20260508084512 2 182 8.0 0.0 0.00 0.00 0.00 85 1009.9
20260508084028 2 181 9.7 0.0 0.00 0.00 0.00 85 1009.9
20260508083545 2 188 9.7 0.0 0.00 0.00 0.00 86 1010.0
20260508083118 2 188 9.7 0.0 0.00 0.00 0.00 86 1010.0
20260508082519 2 191 9.7 0.0 0.00 0.00 0.00 87 1009.9
20260508082037 2 193 9.7 0.0 0.00 0.00 0.00 87 1009.9
20260508081602 2 195 9.7 0.0 0.00 0.00 0.00 86 1009.9
20260508081005 2 195 8.0 0.0 0.00 0.00 0.00 86 1009.8
20260508080523 2 196 8.0 0.0 0.00 0.00 0.00 86 1009.8
20260508080043 2 195 6.4 0.0 0.00 0.00 0.00 86 1009.7
20260508075605 2 195 6.4 0.0 0.00 0.00 0.00 86 1009.6
20260508075014 2 195 6.4 0.0 0.00 0.00 0.00 86 1009.7
20260508074544 1 195 6.4 0.0 0.00 0.00 0.00 87 1009.6
20260508074049 1 195 6.4 0.0 0.00 0.00 0.00 86 1009.7
20260508073501 1 195 6.4 0.0 0.00 0.00 0.00 85 1009.3
20260508073015 1 195 8.0 0.0 0.00 0.00 0.00 85 1009.4
20260508072527 2 195 8.0 0.0 0.00 0.00 0.00 84 1009.4
20260508072046 2 195 9.7 0.0 0.00 0.00 0.00 85 1009.3
20260508071506 2 196 11.3 0.0 0.00 0.00 0.00 84 1009.3
20260508071017 2 200 9.7 0.0 0.00 0.00 0.00 83 1009.3
20260508070533 2 179 8.0 0.0 0.00 0.00 0.00 82 1009.3
20260508070048 2 188 8.0 0.0 0.00 0.00 0.00 81 1009.2
20260508065504 2 191 9.7 0.0 0.00 0.00 0.00 84 1009.1
20260508065022 2 186 9.7 0.0 0.00 0.00 0.00 85 1009.0
20260508064540 2 192 9.7 0.0 0.00 0.00 0.00 84 1009.0
20260508064055 2 185 8.0 0.0 0.00 0.00 0.00 83 1009.0
20260508063502 2 193 8.0 0.0 0.00 0.00 0.00 82 1009.0
20260508063021 2 196 8.0 0.0 0.00 0.00 0.00 82 1008.9
20260508062536 3 200 8.0 0.0 0.00 0.00 0.00 82 1008.9
20260508062051 3 201 9.7 0.0 0.00 0.00 0.00 82 1008.8
20260508061508 3 196 8.0 0.0 0.00 0.00 0.00 82 1008.8
20260508061023 3 190 8.0 0.0 0.00 0.00 0.00 82 1008.8
20260508060537 3 194 8.0 0.0 0.00 0.00 0.00 81 1008.9
20260508060050 3 194 9.7 0.0 0.00 0.00 0.00 80 1008.8
20260508055502 3 196 8.0 0.0 0.00 0.00 0.00 79 1008.8
20260508055021 3 190 8.0 0.0 0.00 0.00 0.00 78 1008.8
20260508054534 3 190 8.0 0.0 0.00 0.00 0.00 78 1008.7
20260508054052 4 186 8.0 0.0 0.00 0.00 0.00 77 1008.7
20260508053503 4 184 8.0 0.0 0.00 0.00 0.00 78 1008.7
20260508052538 5 192 6.4 0.0 0.00 0.00 0.00 73 1008.7
20260508052052 6 192 6.4 0.0 0.00 0.00 0.00 73 1008.7
20260508051504 6 199 6.4 0.0 0.00 0.00 0.00 77 1008.7
20260508051023 5 199 8.0 0.0 0.00 0.00 0.00 78 1008.6
20260508050542 5 199 8.0 0.0 0.00 0.00 0.00 80 1008.6
20260508050054 4 200 8.0 0.0 0.00 0.00 0.00 77 1008.6
20260508045605 5 190 6.4 0.0 0.00 0.00 0.00 73 1008.5
20260508045015 5 73 4.8 0.0 0.00 0.00 0.00 71 1008.4
20260508044532 6 73 4.8 0.0 0.00 0.00 0.00 69 1008.4
20260508044049 7 73 6.4 0.0 0.00 0.00 0.00 69 1008.3
20260508043603 7 71 6.4 0.0 0.00 0.00 0.00 68 1008.3
20260508043012 7 63 3.2 0.0 0.00 0.00 0.00 67 1008.4
20260508042529 8 63 1.6 0.0 0.00 0.00 0.00 66 1008.3
20260508042044 8 63 1.6 0.0 0.00 0.00 0.00 66 1008.4